WGS F8 (USA 272)

Last updated on Sun Dec 07 2025 00:02:49 GMT+0000 (Coordinated Universal Time)

1 41879U 16075A 25340.57906950 -.00000196 00000+0 00000+0 0 9998 2 41879 0.0023 359.2705 0000359 289.3859 145.2291 1.00269061 32888
UTC large
Height (km)
Speed (km/s)
/
Latitude / Longitude
Inclination (degrees)
Orbital Period (minutes)
Azimuth
Elevation
Range (km)
Doppler Factor

Next 0 passes for location: London (51.5072 / 0.1276)

Sorry there are no passes over London.